Weather History for Tracy, MN

Change the Weather History Date:

Tuesday, October 1, 2013

  Actual Average (KMML) Record (KMML)
Temperature  
Mean Temperature 66 °F -  
Max Temperature 77 °F 71 °F 90 °F (1992)
Min Temperature 56 °F 42 °F 24 °F (2003)
Cooling Degree Days 1    
Growing Degree Days 16 (Base 50)    
Moisture  
Dew Point 37 °F    
Average Humidity 37    
Maximum Humidity 64    
Minimum Humidity 15    
Precipitation  
Precipitation 0.00 in - - ()
Sea Level Pressure  
Sea Level Pressure 29.86 in    
Wind  
Wind Speed 13 mph (WNW)    
Max Wind Speed 24 mph    
Max Gust Speed 32 mph    
Visibility 10 miles    
Events      
Averages and records for this station are not official NWS values.
T = Trace of Precipitation, MM = Missing Value Source: NWS Daily Summary

Daily Weather History Graph

Daily Weather History Graph

Search for Another Location

Airport:

Trip Planner

Search our weather history database for the weather conditions in past years. The results will help you decide how hot, cold, wet, or windy it might be!

Date:

Astronomy

Oct. 01, 2013 Rise Set
Actual Time 7:20 AM CDT 7:02 PM CDT
Civil Twilight 6:51 AM CDT 7:31 PM CDT
Nautical Twilight 6:18 AM CDT 8:05 PM CDT
Astronomical Twilight 5:43 AM CDT 8:39 PM CDT
Moon 3:49 AM CDT (10/1) 5:12 PM CDT (10/1)
Length of Visible Light 12h 39m
Length of Day
11h 42m
Waning Crescent, 12% of the Moon is Illuminated
Oct 1
Waning Crescent
Oct 4
New
Oct 11
First Quarter
Oct 18
Full
Oct 26
Last Quarter

Hourly Weather History & Observations

Time (CDT) Temp. Dew Point Humidity Pressure Visibility Wind Dir Wind Speed Gust Speed Precip Events Conditions
12:18 AM 70.7 °F 50.2 °F 48% 29.59 in 10.0 mi SSW 19.6 mph 26.5 mph N/A   Clear
12:38 AM 70.7 °F 50.5 °F 49% 29.59 in 10.0 mi SSW 19.6 mph 27.6 mph N/A   Clear
12:58 AM 70.2 °F 50.7 °F 50% 29.58 in 10.0 mi SSW 20.7 mph 29.9 mph N/A   Clear
1:17 AM 70.2 °F 50.9 °F 50% 29.59 in 10.0 mi SW 21.9 mph 27.6 mph N/A   Clear
1:37 AM 70.0 °F 50.9 °F 51% 29.59 in 10.0 mi SSW 20.7 mph 28.8 mph N/A   Clear
1:58 AM 70.0 °F 50.9 °F 51% 29.60 in 10.0 mi SW 19.6 mph 28.8 mph N/A   Clear
2:18 AM 69.8 °F 50.9 °F 51% 29.60 in 10.0 mi SSW 23.0 mph 32.2 mph N/A   Clear
2:38 AM 68.9 °F 50.9 °F 53% 29.61 in 10.0 mi SW 20.7 mph 32.2 mph N/A   Clear
2:57 AM 68.5 °F 51.1 °F 54% 29.62 in 10.0 mi SW 24.2 mph 31.1 mph N/A   Clear
3:17 AM 68.4 °F 51.3 °F 54% 29.62 in 10.0 mi SW 17.3 mph 28.8 mph N/A   Clear
3:38 AM 67.3 °F 51.4 °F 57% 29.65 in 10.0 mi WSW 15.0 mph 24.2 mph N/A   Clear
3:58 AM 66.4 °F 51.4 °F 59% 29.67 in 10.0 mi WSW 13.8 mph 19.6 mph N/A   Clear
4:17 AM 65.5 °F 51.3 °F 60% 29.70 in 10.0 mi West 8.1 mph - N/A   Clear
4:38 AM 65.8 °F 50.2 °F 57% 29.71 in 10.0 mi NW 10.4 mph - N/A   Clear
4:58 AM 64.4 °F 49.1 °F 58% 29.72 in 10.0 mi NW 11.5 mph - N/A   Clear
5:17 AM 64.6 °F 48.0 °F 55% 29.74 in 10.0 mi NNW 13.8 mph 19.6 mph N/A   Clear
5:37 AM 63.1 °F 48.0 °F 58% 29.76 in 10.0 mi NW 12.7 mph 18.4 mph N/A   Clear
5:57 AM 60.6 °F 48.6 °F 64% 29.77 in 10.0 mi Calm Calm - N/A   Clear
6:18 AM 59.9 °F 47.5 °F 64% 29.78 in 10.0 mi NW 8.1 mph - N/A   Clear
6:38 AM 59.4 °F 46.4 °F 62% 29.80 in 10.0 mi WNW 6.9 mph - N/A   Clear
6:58 AM 59.4 °F 45.5 °F 60% 29.81 in 10.0 mi NW 10.4 mph 16.1 mph N/A   Clear
7:17 AM 58.8 °F 45.0 °F 60% 29.83 in 10.0 mi WNW 8.1 mph - N/A   Clear
7:38 AM 58.3 °F 43.9 °F 59% 29.84 in 10.0 mi WNW 6.9 mph - N/A   Clear
7:58 AM 58.5 °F 43.3 °F 57% 29.85 in 10.0 mi Calm Calm - N/A   Clear
8:18 AM 59.0 °F 43.0 °F 55% 29.86 in 10.0 mi WNW 6.9 mph - N/A   Clear
8:37 AM 60.8 °F 41.2 °F 48% 29.87 in 10.0 mi NW 10.4 mph - N/A   Clear
8:57 AM 62.2 °F 39.9 °F 44% 29.87 in 10.0 mi NW 10.4 mph 17.3 mph N/A   Clear
9:17 AM 63.7 °F 39.2 °F 41% 29.88 in 10.0 mi NW 13.8 mph 19.6 mph N/A   Clear
9:37 AM 65.3 °F 36.9 °F 35% 29.89 in 10.0 mi NW 13.8 mph 18.4 mph N/A   Clear
9:57 AM 66.0 °F 35.6 °F 32% 29.90 in 10.0 mi NNW 13.8 mph 19.6 mph N/A   Clear
10:18 AM 67.5 °F 34.3 °F 29% 29.90 in 10.0 mi NNW 15.0 mph 19.6 mph N/A   Clear
10:38 AM 68.7 °F 34.3 °F 28% 29.91 in 10.0 mi NW 12.7 mph 19.6 mph N/A   Clear
10:58 AM 70.0 °F 34.5 °F 27% 29.91 in 10.0 mi NNW 13.8 mph 20.7 mph N/A   Clear
11:18 AM 71.2 °F 33.4 °F 25% 29.92 in 10.0 mi NW 16.1 mph - N/A   Clear
11:37 AM 72.5 °F 32.4 °F 23% 29.92 in 10.0 mi NW 16.1 mph 20.7 mph N/A   Clear
11:58 AM 73.4 °F 30.4 °F 20% 29.92 in 10.0 mi NW 12.7 mph 21.9 mph N/A   Clear
12:18 PM 73.9 °F 28.4 °F 19% 29.92 in 10.0 mi WNW 15.0 mph 24.2 mph N/A   Clear
12:38 PM 74.5 °F 28.0 °F 18% 29.93 in 10.0 mi WNW 13.8 mph 21.9 mph N/A   Clear
12:58 PM 74.7 °F 29.5 °F 19% 29.94 in 10.0 mi NW 17.3 mph 24.2 mph N/A   Clear
1:17 PM 74.7 °F 30.7 °F 20% 29.94 in 10.0 mi WNW 12.7 mph 19.6 mph N/A   Clear
1:37 PM 75.2 °F 31.6 °F 20% 29.94 in 10.0 mi NW 12.7 mph 17.3 mph N/A   Clear
1:58 PM 75.0 °F 32.0 °F 21% 29.94 in 10.0 mi NW 12.7 mph 16.1 mph N/A   Clear
2:18 PM 75.4 °F 31.5 °F 20% 29.94 in 10.0 mi NW 10.4 mph 19.6 mph N/A   Clear
2:38 PM 76.5 °F 30.9 °F 19% 29.94 in 10.0 mi NW 10.4 mph - N/A   Clear
2:58 PM 76.5 °F 28.2 °F 17% 29.94 in 10.0 mi West 5.8 mph 17.3 mph N/A   Clear
3:18 PM 75.9 °F 27.9 °F 17% 29.94 in 10.0 mi West 10.4 mph 18.4 mph N/A   Clear
3:37 PM 76.5 °F 27.9 °F 17% 29.94 in 10.0 mi West 4.6 mph 16.1 mph N/A   Clear
3:57 PM 76.5 °F 26.1 °F 16% 29.94 in 10.0 mi WNW 8.1 mph - N/A   Clear
4:18 PM 76.1 °F 25.2 °F 15% 29.94 in 10.0 mi WNW 10.4 mph 17.3 mph N/A   Clear
4:37 PM 76.1 °F 24.6 °F 15% 29.94 in 10.0 mi WNW 4.6 mph 16.1 mph N/A   Clear
4:58 PM 75.2 °F 25.7 °F 16% 29.94 in 10.0 mi NW 5.8 mph - N/A   Clear
5:18 PM 75.2 °F 24.3 °F 15% 29.95 in 10.0 mi WNW 11.5 mph - N/A   Clear
5:37 PM 74.5 °F 25.2 °F 16% 29.95 in 10.0 mi Calm Calm - N/A   Clear
5:57 PM 73.4 °F 27.0 °F 18% 29.95 in 10.0 mi Calm Calm - N/A   Clear
6:18 PM 71.6 °F 27.0 °F 19% 29.95 in 10.0 mi Calm Calm - N/A   Clear
6:38 PM 69.6 °F 28.6 °F 22% 29.95 in 10.0 mi Calm Calm - N/A   Clear
6:58 PM 67.8 °F 29.8 °F 24% 29.95 in 10.0 mi Calm Calm - N/A   Clear
7:18 PM 61.9 °F 30.4 °F 31% 29.96 in 7.0 mi Calm Calm - N/A   Clear
7:38 PM 61.3 °F 32.0 °F 33% 29.96 in 10.0 mi Calm Calm - N/A   Clear
7:57 PM 61.9 °F 32.0 °F 33% 29.97 in 10.0 mi Calm Calm - N/A   Clear
8:17 PM 58.6 °F 32.0 °F 37% 29.98 in 10.0 mi Calm Calm - N/A   Clear
8:37 PM 57.7 °F 33.3 °F 40% 29.98 in 10.0 mi Calm Calm - N/A   Clear
8:58 PM 60.1 °F 32.0 °F 35% 29.99 in 10.0 mi Calm Calm - N/A   Clear
9:18 PM 56.8 °F 33.3 °F 41% 29.99 in 10.0 mi Calm Calm - N/A   Clear
9:38 PM 59.0 °F 32.9 °F 37% 29.99 in 10.0 mi Calm Calm - N/A   Clear
9:58 PM 58.5 °F 32.9 °F 38% 30.00 in 10.0 mi Calm Calm - N/A   Clear
10:18 PM 57.0 °F 33.6 °F 41% 30.00 in 10.0 mi Calm Calm - N/A   Clear
10:37 PM 60.8 °F 32.4 °F 34% 30.00 in 10.0 mi Calm Calm - N/A   Clear
10:57 PM 56.5 °F 33.8 °F 42% 30.01 in 10.0 mi Calm Calm - N/A   Clear
11:18 PM 56.7 °F 33.8 °F 42% 30.01 in 10.0 mi Calm Calm - N/A   Clear
11:37 PM 57.2 °F 33.3 °F 40% 30.01 in 10.0 mi Calm Calm - N/A   Clear
11:57 PM 58.8 °F 32.7 °F 37% 30.01 in 10.0 mi Calm Calm - N/A   Clear